Location: Champs
(46.0562°N, 3.0841°E)
Time: 09:40:19
(UTC+00:00)

Daily predictions for brighter satellites

Satellite Brightness Start Highest point End
(mag) Time Altitude Azimuth Time Altitude Azimuth Time Altitude Azimuth
Cosmos 1656 3.7 16:41:18 10° SSW 16:46:45 64° ESE 16:52:12 10° NNE
Cosmos 1825 4.4 16:43:52 10° NNW 16:47:14 30° W 16:50:34 10° SSW
Cosmos 1356 Rocket 3.7 16:43:24 10° S 16:47:25 48° E 16:51:32 10° NNE
YAOGAN 6 4.3 16:47:05 10° E 16:48:44 13° ENE 16:50:22 10° NE
Cosmos 923 Rocket 4.5 16:45:50 10° S 16:50:40 40° ESE 16:55:30 10° NE
USA 215 4.2 16:46:45 10° ENE 16:52:29 34° N 16:58:12 10° WNW
PSLV R/B 4.0 16:48:50 10° NNE 16:53:04 76° ESE 16:57:16 10° S
IRS-1C Rocket 4.1 16:47:54 10° SSE 16:53:09 72° ENE 16:58:26 10° N
Cosmos 1805 Rocket 3.5 16:49:44 10° N 16:54:06 71° E 16:58:28 10° SSE
Cosmos 2056 Rocket 4.4 16:51:05 10° N 16:55:21 25° NE 16:59:37 10° ESE
NOSS 2-3 (E) 4.2 16:55:02 10° S 16:59:06 41° ESE 17:03:48 10° NE
Cosmos 2034 Rocket 4.5 16:54:58 10° N 17:00:56 39° ENE 17:06:50 10° SE
Cosmos 724 4.4 16:56:12 10° NNW 17:01:57 53° NE 17:07:35 10° SE
BREEZE-M DEB (TANK) 2.9 16:57:56 10° W 17:02:01 42° N 17:03:53 14° ENE
USA 229 DEB 3.8 16:55:27 10° SW 17:02:02 78° NW 17:08:58 10° NE
USA 229 3.8 16:55:34 10° SW 17:02:08 78° NW 17:09:04 10° NE
CZ-4 R/B 2.7 16:59:33 10° ESE 17:02:31 20° ENE 17:05:29 10° NNE
Cosmos 1538 Rocket 4.3 16:57:48 10° SSW 17:03:04 74° WNW 17:08:26 10° NNE
ASTEX 1 4.2 16:59:45 10° N 17:04:39 56° W 17:09:30 10° SSW
NOSS 3-1 (C) 3.5 16:59:48 10° SW 17:05:21 78° NW 17:11:51 10° NE
Meteor 2-20 Rocket 4.5 16:59:43 10° S 17:05:45 65° E 17:11:51 10° NNE
Lacrosse 4 Rocket 1.3 17:01:46 10° SSW 17:05:49 73° ESE 17:09:52 10° NE
ERBS 2.7 17:03:52 10° WSW 17:07:09 56° NW 17:10:09 12° NE
NOSS 3-1 (A) 3.3 17:01:47 10° SSW 17:07:17 74° SE 17:13:40 10° NE
Okean-O 2.8 17:03:11 10° SE 17:07:26 47° ENE 17:11:42 10° N
SeaSat 1 3.0 17:04:00 10° ESE 17:08:31 38° NE 17:13:03 10° NNW
NOSS 2-3 (D) 4.1 17:04:36 10° SSW 17:08:45 46° ESE 17:13:16 11° NE
Cosmos 1633 Rocket 3.1 17:16:09 10° N 17:20:32 59° ENE 17:24:54 10° SSE
Cosmos 1862 3.2 17:17:50 10° N 17:21:49 65° E 17:25:47 10° SSE
Envisat 3.0 17:18:05 10° SSE 17:23:02 56° ENE 17:28:01 10° N
Cosmos 1151 Rocket 3.5 17:21:16 10° SSE 17:25:20 40° E 17:29:26 10° NNE
Cosmos 1606 4.4 17:22:56 10° SE 17:24:16 15° ESE 17:24:16 15° ESE
CSL-04 Rocket 4.2 17:21:10 10° SE 17:25:54 34° ENE 17:30:36 10° N
Sich 1 3.3 17:22:00 10° NNW 17:26:22 74° W 17:30:43 10° S
CORIOLIS 4.3 17:21:59 10° SSE 17:27:24 83° WSW 17:32:53 10° NNW
Okean O Rocket 4.4 17:24:56 10° SW 17:28:21 22° W 17:31:46 10° NW
Cosmos 2228 Rocket 4.3 17:25:25 10° SE 17:28:43 20° E 17:29:08 20° ENE
Tsikada Rocket 4.4 17:23:14 10° SSE 17:29:06 41° E 17:35:02 10° NNE
SMAP 3.6 17:25:52 10° S 17:30:28 62° WSW 17:35:06 10° NNW
CENTAUR R/B 4.2 17:27:18 10° NW 17:33:04 23° NNE 17:37:14 16° NE
Cosmos 1328 Rocket 3.6 17:30:42 10° S 17:35:00 55° E 17:39:18 10° NNE
Cosmos 1666 Rocket 3.6 17:31:21 10° N 17:35:44 80° W 17:40:03 10° S
Cosmos 1933 Rocket 4.0 17:32:41 10° N 17:36:42 35° ENE 17:40:43 10° SE
COSMO-SKYMED 1 2.8 17:34:27 10° NNE 17:38:38 46° E 17:42:49 10° S
SL-16 R/B 3.7 17:35:18 10° SE 17:38:08 17° ESE 17:38:08 17° ESE
Cosmos 1980 Rocket 2.3 17:33:49 10° S 17:39:18 55° ESE 17:43:59 15° NE
Cosmos 1515 Rocket 4.0 17:35:22 10° SSE 17:39:25 38° E 17:42:37 15° NNE
Cosmos 158 Rocket 4.2 17:38:07 10° S 17:43:12 49° ESE 17:46:56 17° NE
Cosmos 1452 Rocket 4.5 17:39:29 10° N 17:43:54 26° NE 17:44:36 25° ENE
COBE Rocket 3.9 17:39:23 10° N 17:44:09 79° WNW 17:48:48 10° SSW
Cosmos 1633 3.5 17:40:47 10° NNW 17:44:20 49° W 17:47:50 10° S
Cosmos 2297 Rocket 4.2 17:40:13 10° NW 17:45:08 31° WSW 17:50:02 10° SSW
Cosmos 2227 Rocket 4.0 17:40:47 10° NW 17:45:49 33° WSW 17:50:48 10° SSW
Cosmos 2322 Rocket 3.9 17:42:42 10° SE 17:44:20 15° ESE 17:44:20 15° ESE
Cosmos 1371 Rocket 3.9 17:41:06 10° NNW 17:46:18 73° ENE 17:51:28 10° SSE
NOSS 2-3 (C) 3.8 17:42:06 10° SW 17:46:29 83° NW 17:50:10 19° NE
Cosmos 1464 Rocket 4.2 17:40:49 10° NNW 17:46:57 74° W 17:53:02 10° S
NOAA 12 4.3 17:42:24 10° S 17:47:44 75° WSW 17:53:05 10° NNW
Geosat 3.9 17:44:30 14° NNE 17:48:49 72° ESE 17:53:50 10° SSW
GEOS 3 Rocket 3.6 17:49:26 20° NE 17:53:11 81° SE 17:58:28 10° SW
ATLAS 3B R/B 4.1 17:50:23 10° NNW 17:55:02 19° NNE 17:57:02 17° NE
Cosmos 2112 Rocket 4.1 17:55:10 10° SSW 18:00:22 80° WNW 18:05:20 12° NNE
Cosmos 2263 Rocket 2.4 17:56:43 10° NNW 18:02:05 46° ENE 18:04:09 32° ESE
SKYMED 3 4.4 17:58:25 10° NNE 18:02:48 83° ESE 18:07:08 10° SSW
YAOGAN 1 2.5 17:58:49 10° SSE 18:03:05 65° ENE 18:07:24 10° N
Ariane Rocket 3.7 18:06:44 34° NE 18:06:44 34° NE 18:10:41 10° N
Cosmos 1680 Rocket 3.9 18:01:04 10° SSW 18:06:13 62° WNW 18:11:27 10° NNE
Cosmos 1470 Rocket 3.6 18:02:33 10° N 18:07:04 82° W 18:11:32 10° S
COSMOS 2455 4.5 18:07:57 10° SSE 18:09:52 17° SE 18:09:52 17° SE
Cosmos 1697 Rocket 3.6 18:11:50 10° SW 18:17:16 47° WNW 18:22:23 12° NNE
APEX 3.4 18:14:53 10° SW 18:18:08 49° WNW 18:18:12 49° NW
YAOGAN 6 3.5 18:18:28 10° S 18:21:51 47° W 18:25:14 10° NNW
SKYMED 2 4.2 18:22:41 11° N 18:26:49 56° WNW 18:31:03 10° SSW
USA 215 3.6 18:33:21 42° NE 18:34:39 47° NNE 18:40:50 10° NW
CZ-4 R/B 2.7 18:33:23 10° S 18:37:17 41° W 18:41:10 10° NNW
Cosmos 2056 Rocket 4.3 18:32:47 10° NNW 18:37:44 49° WSW 18:42:42 10° S
H-2A R/B 4.4 18:45:30 11° N 18:45:30 11° N 18:45:45 10° N
Cosmos 1844 Rocket 4.4 18:39:37 10° N 18:41:32 18° N 18:41:32 18° N
NOSS 3-2 (C) 4.5 18:37:46 10° NNW 18:44:30 39° NE 18:44:47 39° NE
Lacrosse 4 Rocket 3.8 18:42:25 10° W 18:44:58 16° NW 18:46:34 13° NNW
SeaSat 1 3.9 18:41:31 10° S 18:46:01 36° WSW 18:50:34 10° NW
Meteor 1-26 Rocket 4.3 18:47:37 10° SSW 18:53:37 83° W 18:56:32 32° N
NOAA 11 4.4 18:48:33 10° S 18:53:56 67° WSW 18:59:22 10° NNW
Cosmos 1634 Rocket 4.4 18:57:47 10° NNW 19:03:52 60° W 19:09:54 10° S
Cosmos 2228 Rocket 4.3 19:02:23 10° SSW 19:06:36 41° WNW 19:06:42 41° WNW
Cosmos 2279 Rocket 4.2 19:16:02 10° NNW 19:21:39 67° WNW 19:21:39 67° WNW
SL-16 R/B 3.2 19:16:34 10° SSW 19:20:04 39° SW 19:20:04 39° SW
Cosmos 1980 Rocket 3.9 19:18:46 10° WSW 19:23:38 28° NW 19:25:47 23° NNW
CENTAUR R/B 3.6 19:18:14 10° NW 19:24:25 45° NNE 19:24:25 45° NNE
Cosmos 2322 Rocket 3.7 19:23:48 10° SSW 19:26:13 27° SSW 19:26:13 27° SSW
Cosmos 2263 Rocket 3.8 19:41:02 10° NW 19:45:47 30° WSW 19:45:55 30° WSW
USA 238 DEB 4.2 19:38:55 10° NW 19:44:27 57° NW 19:44:27 57° NW
USA 238 4.2 19:39:01 10° NW 19:44:32 57° NW 19:44:32 57° NW
ATLAS 3B R/B 4.1 19:41:05 10° NNW 19:44:18 28° NNW 19:44:18 28° NNW
NOSS 3-2 (A) 4.3 19:42:43 10° NW 19:48:38 61° NW 19:48:38 61° NW
